Location: George Washington National Forest Helicopter Landing Site
(38.6463°N, 79.0851°W)
Time: 21:18:43
(UTC-04:00)

Tiros 1 despin weight - Pass Details

Date: 19 August 2019
Orbit: 594 x 642 km, 48.2° (Epoch: 19 September)

Event Time Altitude Azimuth Distance (km) Brightness Sun altitude
Rises 07:03:57 0° 303° (WNW) 2,894 ? 4.9°
Reaches altitude 10° 07:06:18 10° 308° (NW) 1,994 ? 5.3°
Maximum altitude 07:10:48 55° 26° (NNE) 759 ? 6.2°
Drops below altitude 10° 07:15:22 10° 105° (ESE) 2,013 ? 7.0°
Sets 07:17:45 0° 110° (ESE) 2,925 ? 7.5°
